| time (UTC) | temp C | wind direction | speed KPH | gust KPH | rain 1hr cm | rain 24hr cm | rain mn cm | humidity % | barometer mb |
| 20260504013003 | 15 | 216 | 16.1 | 24.1 | 0.00 | 0.00 | 0.00 | 66 | 1007.9 |
| 20260504012524 | 15 | 212 | 17.7 | 24.1 | 0.00 | 0.00 | 0.00 | 66 | 1007.9 |
| 20260504012003 | 15 | 212 | 19.3 | 30.6 | 0.00 | 0.00 | 0.00 | 66 | 1007.6 |
| 20260504011503 | 15 | 213 | 20.9 | 29.0 | 0.00 | 0.00 | 0.00 | 65 | 1007.6 |
| 20260504011003 | 15 | 214 | 20.9 | 24.1 | 0.00 | 0.00 | 0.00 | 64 | 1007.6 |
| 20260504010503 | 15 | 209 | 20.9 | 27.4 | 0.00 | 0.00 | 0.00 | 64 | 1007.6 |
| 20260504010003 | 15 | 209 | 19.3 | 27.4 | 0.00 | 0.00 | 0.00 | 64 | 1007.6 |
| 20260504005503 | 15 | 210 | 19.3 | 29.0 | 0.00 | 0.00 | 0.00 | 63 | 1007.6 |
| 20260504005003 | 16 | 214 | 17.7 | 22.5 | 0.00 | 0.00 | 0.00 | 63 | 1007.9 |
| 20260504004503 | 16 | 211 | 16.1 | 24.1 | 0.00 | 0.00 | 0.00 | 61 | 1007.9 |
| 20260504004003 | 16 | 215 | 14.5 | 17.7 | 0.00 | 0.00 | 0.00 | 60 | 1007.6 |
| 20260504003503 | 16 | 213 | 17.7 | 24.1 | 0.00 | 0.00 | 0.00 | 58 | 1007.6 |
| 20260504003024 | 17 | 211 | 20.9 | 27.4 | 0.00 | 0.00 | 0.00 | 57 | 1007.9 |
| 20260504002503 | 17 | 219 | 22.5 | 33.8 | 0.00 | 0.00 | 0.00 | 57 | 1007.6 |
| 20260504002003 | 17 | 214 | 17.7 | 24.1 | 0.00 | 0.00 | 0.00 | 57 | 1007.6 |
| 20260504001503 | 17 | 215 | 20.9 | 27.4 | 0.00 | 0.00 | 0.00 | 56 | 1007.6 |
| 20260504001003 | 17 | 214 | 19.3 | 25.7 | 0.00 | 0.00 | 0.00 | 55 | 1007.6 |
| 20260504000503 | 17 | 215 | 20.9 | 30.6 | 0.00 | 0.00 | 0.00 | 54 | 1007.6 |
| 20260504000003 | 17 | 214 | 25.7 | 35.4 | 0.00 | 0.00 | 0.00 | 53 | 1007.9 |
| 20260503235503 | 17 | 224 | 25.7 | 40.2 | 0.00 | 0.00 | 0.00 | 52 | 1007.9 |
| 20260503235003 | 17 | 219 | 24.1 | 33.8 | 0.00 | 0.00 | 0.00 | 52 | 1007.9 |
| 20260503234503 | 18 | 224 | 25.7 | 35.4 | 0.00 | 0.00 | 0.00 | 52 | 1007.6 |
| 20260503234024 | 18 | 216 | 27.4 | 43.5 | 0.00 | 0.00 | 0.00 | 52 | 1007.9 |
| 20260503233524 | 18 | 217 | 29.0 | 40.2 | 0.00 | 0.00 | 0.00 | 51 | 1007.6 |
| 20260503233024 | 18 | 222 | 29.0 | 41.8 | 0.00 | 0.00 | 0.00 | 51 | 1007.9 |
| 20260503232503 | 18 | 218 | 29.0 | 33.8 | 0.00 | 0.00 | 0.00 | 53 | 1007.9 |
| 20260503232003 | 18 | 215 | 25.7 | 38.6 | 0.00 | 0.00 | 0.00 | 52 | 1007.9 |
| 20260503231503 | 18 | 215 | 27.4 | 35.4 | 0.00 | 0.00 | 0.00 | 52 | 1007.9 |
| 20260503231024 | 18 | 225 | 29.0 | 37.0 | 0.00 | 0.00 | 0.00 | 51 | 1007.9 |
| 20260503230503 | 18 | 222 | 32.2 | 54.7 | 0.00 | 0.00 | 0.00 | 51 | 1007.9 |
| 20260503230003 | 18 | 217 | 29.0 | 41.8 | 0.00 | 0.00 | 0.00 | 51 | 1008.3 |
| 20260503225503 | 18 | 218 | 30.6 | 41.8 | 0.00 | 0.00 | 0.00 | 51 | 1007.9 |
| 20260503225003 | 18 | 218 | 33.8 | 51.5 | 0.00 | 0.00 | 0.00 | 51 | 1007.9 |
| 20260503224503 | 17 | 219 | 27.4 | 40.2 | 0.00 | 0.00 | 0.00 | 53 | 1007.9 |
| 20260503224003 | 17 | 216 | 30.6 | 41.8 | 0.00 | 0.00 | 0.00 | 52 | 1008.3 |
| 20260503223503 | 17 | 215 | 30.6 | 43.5 | 0.00 | 0.00 | 0.00 | 52 | 1008.3 |
| 20260503223003 | 17 | 213 | 35.4 | 56.3 | 0.00 | 0.00 | 0.00 | 53 | 1008.3 |
| 20260503222503 | 18 | 218 | 37.0 | 53.1 | 0.00 | 0.00 | 0.00 | 52 | 1008.3 |
| 20260503222003 | 18 | 212 | 40.2 | 53.1 | 0.00 | 0.00 | 0.00 | 50 | 1008.3 |
| 20260503221503 | 17 | 214 | 37.0 | 53.1 | 0.00 | 0.00 | 0.00 | 54 | 1008.3 |
| 20260503221003 | 17 | 216 | 37.0 | 51.5 | 0.00 | 0.00 | 0.00 | 55 | 1008.3 |
| 20260503220503 | 17 | 215 | 40.2 | 54.7 | 0.00 | 0.00 | 0.00 | 53 | 1007.9 |
| 20260503220003 | 17 | 211 | 38.6 | 54.7 | 0.00 | 0.00 | 0.00 | 54 | 1007.9 |
| 20260503215503 | 17 | 217 | 37.0 | 48.3 | 0.00 | 0.00 | 0.00 | 54 | 1008.3 |
| 20260503215003 | 17 | 222 | 37.0 | 53.1 | 0.00 | 0.00 | 0.00 | 54 | 1008.3 |
| 20260503214503 | 16 | 216 | 32.2 | 43.5 | 0.00 | 0.00 | 0.00 | 56 | 1008.3 |
| 20260503214003 | 16 | 229 | 33.8 | 43.5 | 0.00 | 0.00 | 0.00 | 55 | 1008.3 |
| 20260503213503 | 16 | 210 | 35.4 | 51.5 | 0.00 | 0.00 | 0.00 | 56 | 1008.3 |
| 20260503213003 | 16 | 211 | 35.4 | 49.9 | 0.00 | 0.00 | 0.00 | 56 | 1008.3 |
| 20260503212503 | 16 | 213 | 35.4 | 66.0 | 0.00 | 0.00 | 0.00 | 56 | 1008.3 |
| 20260503212003 | 16 | 208 | 37.0 | 53.1 | 0.00 | 0.00 | 0.00 | 55 | 1008.6 |
| 20260503211503 | 17 | 219 | 41.8 | 61.2 | 0.00 | 0.00 | 0.00 | 54 | 1008.9 |
| 20260503211003 | 17 | 218 | 43.5 | 64.4 | 0.00 | 0.00 | 0.00 | 53 | 1008.6 |
| 20260503210503 | 17 | 214 | 37.0 | 54.7 | 0.00 | 0.00 | 0.00 | 55 | 1009.3 |
| 20260503210003 | 17 | 212 | 33.8 | 51.5 | 0.00 | 0.00 | 0.00 | 57 | 1008.9 |
| 20260503205503 | 16 | 215 | 45.1 | 62.8 | 0.00 | 0.00 | 0.00 | 56 | 1009.3 |
| 20260503205003 | 16 | 218 | 38.6 | 48.3 | 0.00 | 0.00 | 0.00 | 57 | 1008.9 |
| 20260503204524 | 16 | 207 | 37.0 | 41.8 | 0.00 | 0.00 | 0.00 | 57 | 1009.3 |
| 20260503204003 | 16 | 213 | 45.1 | 61.2 | 0.00 | 0.00 | 0.00 | 56 | 1009.3 |
| 20260503203503 | 16 | 212 | 41.8 | 57.9 | 0.00 | 0.00 | 0.00 | 56 | 1009.6 |
| 20260503203003 | 16 | 209 | 43.5 | 56.3 | 0.00 | 0.00 | 0.00 | 57 | 1009.3 |
| 20260503202503 | 16 | 208 | 40.2 | 46.7 | 0.00 | 0.00 | 0.00 | 57 | 1008.9 |
| 20260503202003 | 16 | 209 | 37.0 | 49.9 | 0.00 | 0.00 | 0.00 | 56 | 1009.6 |
| 20260503201524 | 16 | 203 | 41.8 | 54.7 | 0.00 | 0.00 | 0.00 | 55 | 1009.3 |
| 20260503201003 | 16 | 215 | 35.4 | 49.9 | 0.00 | 0.00 | 0.00 | 56 | 1010.0 |
| 20260503200503 | 16 | 211 | 37.0 | 48.3 | 0.00 | 0.00 | 0.00 | 53 | 1010.0 |
| 20260503200003 | 16 | 202 | 30.6 | 38.6 | 0.00 | 0.00 | 0.00 | 54 | 1010.3 |
| 20260503195503 | 16 | 207 | 37.0 | 62.8 | 0.00 | 0.00 | 0.00 | 54 | 1010.7 |
| 20260503195024 | 16 | 211 | 37.0 | 41.8 | 0.00 | 0.00 | 0.00 | 54 | 1010.3 |
| 20260503194524 | 16 | 210 | 37.0 | 57.9 | 0.00 | 0.00 | 0.00 | 53 | 1010.3 |
| 20260503194003 | 16 | 211 | 38.6 | 57.9 | 0.00 | 0.00 | 0.00 | 51 | 1010.7 |
| 20260503193524 | 16 | 207 | 37.0 | 49.9 | 0.00 | 0.00 | 0.00 | 51 | 1011.0 |
| 20260503193003 | 16 | 213 | 40.2 | 56.3 | 0.00 | 0.00 | 0.00 | 51 | 1011.0 |
| 20260503192503 | 16 | 214 | 37.0 | 48.3 | 0.00 | 0.00 | 0.00 | 49 | 1011.4 |
| 20260503192003 | 16 | 215 | 38.6 | 56.3 | 0.00 | 0.00 | 0.00 | 51 | 1011.4 |
| 20260503191503 | 16 | 217 | 40.2 | 53.1 | 0.00 | 0.00 | 0.00 | 51 | 1011.4 |
| 20260503191003 | 16 | 218 | 35.4 | 48.3 | 0.00 | 0.00 | 0.00 | 50 | 1011.7 |
| 20260503190503 | 16 | 216 | 30.6 | 49.9 | 0.00 | 0.00 | 0.00 | 52 | 1012.1 |
| 20260503190024 | 16 | 219 | 37.0 | 54.7 | 0.00 | 0.00 | 0.00 | 49 | 1012.1 |
| 20260503185503 | 16 | 221 | 33.8 | 51.5 | 0.00 | 0.00 | 0.00 | 52 | 1012.4 |
| 20260503185003 | 15 | 222 | 37.0 | 53.1 | 0.00 | 0.00 | 0.00 | 52 | 1012.8 |
| 20260503184503 | 15 | 227 | 33.8 | 49.9 | 0.00 | 0.00 | 0.00 | 52 | 1013.1 |
| 20260503184003 | 15 | 230 | 35.4 | 48.3 | 0.00 | 0.00 | 0.00 | 51 | 1013.1 |
| 20260503183503 | 15 | 223 | 35.4 | 48.3 | 0.00 | 0.00 | 0.00 | 51 | 1013.1 |
| 20260503183024 | 15 | 219 | 30.6 | 46.7 | 0.00 | 0.00 | 0.00 | 51 | 1013.1 |
| 20260503182503 | 15 | 220 | 30.6 | 53.1 | 0.00 | 0.00 | 0.00 | 50 | 1013.1 |
| 20260503182003 | 15 | 219 | 32.2 | 43.5 | 0.00 | 0.00 | 0.00 | 50 | 1013.1 |
| 20260503181524 | 15 | 218 | 30.6 | 41.8 | 0.00 | 0.00 | 0.00 | 49 | 1013.1 |
| 20260503181003 | 15 | 213 | 35.4 | 53.1 | 0.00 | 0.00 | 0.00 | 48 | 1013.1 |
| 20260503180503 | 16 | 227 | 30.6 | 38.6 | 0.00 | 0.00 | 0.00 | 50 | 1013.1 |
| 20260503180003 | 16 | 217 | 33.8 | 46.7 | 0.00 | 0.00 | 0.00 | 47 | 1013.4 |
| 20260503175524 | 16 | 210 | 37.0 | 54.7 | 0.00 | 0.00 | 0.00 | 47 | 1013.1 |
| 20260503175003 | 16 | 212 | 35.4 | 49.9 | 0.00 | 0.00 | 0.00 | 49 | 1013.1 |
| 20260503174503 | 16 | 212 | 40.2 | 54.7 | 0.00 | 0.00 | 0.00 | 48 | 1013.1 |
| 20260503174003 | 16 | 212 | 32.2 | 46.7 | 0.00 | 0.00 | 0.00 | 49 | 1013.4 |
| 20260503173503 | 16 | 210 | 38.6 | 57.9 | 0.00 | 0.00 | 0.00 | 49 | 1013.1 |
| 20260503173003 | 16 | 220 | 32.2 | 46.7 | 0.00 | 0.00 | 0.00 | 50 | 1013.8 |
| 20260503172504 | 16 | 216 | 33.8 | 43.5 | 0.00 | 0.00 | 0.00 | 48 | 1013.8 |
| 20260503172003 | 16 | 222 | 37.0 | 48.3 | 0.00 | 0.00 | 0.00 | 51 | 1013.8 |
| 20260503171503 | 16 | 217 | 30.6 | 37.0 | 0.00 | 0.00 | 0.00 | 49 | 1013.8 |
| 20260503171003 | 16 | 220 | 30.6 | 46.7 | 0.00 | 0.00 | 0.00 | 51 | 1013.8 |
| 20260503170503 | 16 | 211 | 30.6 | 41.8 | 0.00 | 0.00 | 0.00 | 52 | 1013.8 |
| 20260503151003 | 14 | 222 | 27.4 | 35.4 | 0.00 | 0.00 | 0.00 | 62 | 1015.9 |
| 20260503150503 | 14 | 218 | 30.6 | 38.6 | 0.00 | 0.00 | 0.00 | 61 | 1016.2 |
| 20260503131003 | 10 | 225 | 20.9 | 30.6 | 0.00 | 0.00 | 0.00 | 77 | 1016.6 |
| 20260503130503 | 10 | 224 | 20.9 | 27.4 | 0.00 | 0.00 | 0.00 | 77 | 1016.9 |
| 20260503110503 | 4 | 215 | 6.4 | 6.4 | 0.00 | 0.00 | 0.00 | 85 | 1016.6 |
| 20260503090503 | 5 | 221 | 8.0 | 11.3 | 0.00 | 0.00 | 0.00 | 80 | 1016.9 |
| 20260503081503 | 4 | 223 | 6.4 | 9.7 | 0.00 | 0.00 | 0.00 | 81 | 1016.9 |
| 20260503081003 | 4 | 222 | 4.8 | 6.4 | 0.00 | 0.00 | 0.00 | 81 | 1016.6 |
| 20260503080503 | 4 | 224 | 4.8 | 6.4 | 0.00 | 0.00 | 0.00 | 81 | 1016.9 |
| 20260503072503 | 3 | 224 | 3.2 | 4.8 | 0.00 | 0.00 | 0.00 | 83 | 1016.9 |
| 20260503072003 | 3 | 237 | 3.2 | 3.2 | 0.00 | 0.00 | 0.00 | 83 | 1016.9 |
| 20260503071524 | 3 | 232 | 3.2 | 3.2 | 0.00 | 0.00 | 0.00 | 83 | 1016.9 |
| 20260503071003 | 3 | 227 | 3.2 | 3.2 | 0.00 | 0.00 | 0.00 | 83 | 1017.2 |
| 20260503070524 | 3 | 220 | 3.2 | 3.2 | 0.00 | 0.00 | 0.00 | 83 | 1016.9 |
| 20260503055024 | 5 | 228 | 3.2 | 4.8 | 0.00 | 0.00 | 0.00 | 81 | 1017.6 |
| 20260503054503 | 5 | 229 | 4.8 | 4.8 | 0.00 | 0.00 | 0.00 | 80 | 1017.6 |
| 20260503054003 | 5 | 223 | 4.8 | 9.7 | 0.00 | 0.00 | 0.00 | 80 | 1017.6 |
| 20260503053524 | 5 | 229 | 3.2 | 4.8 | 0.00 | 0.00 | 0.00 | 80 | 1017.6 |
| 20260503053024 | 5 | 225 | 3.2 | 4.8 | 0.00 | 0.00 | 0.00 | 80 | 1017.6 |
| 20260503052524 | 5 | 224 | 3.2 | 3.2 | 0.00 | 0.00 | 0.00 | 79 | 1017.2 |
| 20260503052003 | 5 | 227 | 3.2 | 4.8 | 0.00 | 0.00 | 0.00 | 79 | 1017.6 |
| 20260503051503 | 5 | 223 | 4.8 | 4.8 | 0.00 | 0.00 | 0.00 | 78 | 1017.6 |
| 20260503051003 | 5 | 230 | 4.8 | 4.8 | 0.00 | 0.00 | 0.00 | 78 | 1017.6 |
| 20260503050524 | 5 | 234 | 4.8 | 6.4 | 0.00 | 0.00 | 0.00 | 79 | 1017.6 |
| 20260503050003 | 5 | 235 | 3.2 | 4.8 | 0.00 | 0.00 | 0.00 | 78 | 1017.6 |
| 20260503045503 | 5 | 225 | 3.2 | 4.8 | 0.00 | 0.00 | 0.00 | 77 | 1017.6 |
| 20260503045003 | 5 | 224 | 3.2 | 4.8 | 0.00 | 0.00 | 0.00 | 77 | 1017.6 |
| 20260503044503 | 5 | 229 | 3.2 | 4.8 | 0.00 | 0.00 | 0.00 | 76 | 1017.6 |
| 20260503044003 | 5 | 225 | 3.2 | 4.8 | 0.00 | 0.00 | 0.00 | 76 | 1017.6 |
| 20260503043503 | 5 | 220 | 3.2 | 3.2 | 0.00 | 0.00 | 0.00 | 76 | 1017.6 |
| 20260503043003 | 6 | 216 | 3.2 | 4.8 | 0.00 | 0.00 | 0.00 | 75 | 1017.6 |
| 20260503042503 | 6 | 224 | 3.2 | 4.8 | 0.00 | 0.00 | 0.00 | 75 | 1017.6 |
| 20260503042024 | 6 | 226 | 3.2 | 4.8 | 0.00 | 0.00 | 0.00 | 75 | 1017.6 |
| 20260503041503 | 6 | 229 | 3.2 | 4.8 | 0.00 | 0.00 | 0.00 | 75 | 1017.6 |
| 20260503041024 | 6 | 230 | 3.2 | 4.8 | 0.00 | 0.00 | 0.00 | 74 | 1017.6 |
| 20260503040503 | 6 | 227 | 3.2 | 3.2 | 0.00 | 0.00 | 0.00 | 74 | 1017.6 |
| 20260503040003 | 6 | 215 | 3.2 | 3.2 | 0.00 | 0.00 | 0.00 | 73 | 1017.6 |
| 20260503035503 | 6 | 219 | 4.8 | 4.8 | 0.00 | 0.00 | 0.00 | 72 | 1017.6 |
| 20260503035003 | 6 | 222 | 3.2 | 3.2 | 0.00 | 0.00 | 0.00 | 71 | 1017.6 |
| 20260503034503 | 6 | 223 | 3.2 | 4.8 | 0.00 | 0.00 | 0.00 | 71 | 1017.6 |
| 20260503034003 | 7 | 219 | 3.2 | 4.8 | 0.00 | 0.00 | 0.00 | 70 | 1017.6 |
| 20260503033503 | 7 | 223 | 4.8 | 4.8 | 0.00 | 0.00 | 0.00 | 69 | 1017.6 |
| 20260503033024 | 7 | 224 | 3.2 | 4.8 | 0.00 | 0.00 | 0.00 | 69 | 1017.6 |
| 20260503032524 | 7 | 220 | 3.2 | 4.8 | 0.00 | 0.00 | 0.00 | 69 | 1017.9 |
| 20260503032003 | 7 | 227 | 3.2 | 4.8 | 0.00 | 0.00 | 0.00 | 68 | 1017.9 |
| 20260503031503 | 7 | 261 | 3.2 | 4.8 | 0.00 | 0.00 | 0.00 | 64 | 1017.9 |
| 20260503031003 | 7 | 265 | 1.6 | 3.2 | 0.00 | 0.00 | 0.00 | 65 | 1017.9 |
| 20260503030524 | 7 | 0 | 0.0 | 0.0 | 0.00 | 0.00 | 0.00 | 66 | 1017.9 |
| 20260503030003 | 7 | 0 | 0.0 | 0.0 | 0.00 | 0.00 | 0.00 | 68 | 1017.9 |
| 20260503025524 | 7 | 0 | 0.0 | 0.0 | 0.00 | 0.00 | 0.00 | 65 | 1017.9 |
| 20260503025003 | 7 | 0 | 0.0 | 0.0 | 0.00 | 0.00 | 0.00 | 66 | 1017.9 |
| 20260503024503 | 7 | 0 | 0.0 | 0.0 | 0.00 | 0.00 | 0.00 | 66 | 1017.9 |
| 20260503024003 | 7 | 0 | 0.0 | 0.0 | 0.00 | 0.00 | 0.00 | 65 | 1017.9 |
| 20260503023503 | 7 | 0 | 0.0 | 0.0 | 0.00 | 0.00 | 0.00 | 62 | 1017.6 |
| 20260503023024 | 7 | 0 | 0.0 | 0.0 | 0.00 | 0.00 | 0.00 | 62 | 1017.6 |
| 20260503022503 | 7 | 0 | 0.0 | 0.0 | 0.00 | 0.00 | 0.00 | 61 | 1017.6 |
| 20260503022024 | 8 | 0 | 0.0 | 0.0 | 0.00 | 0.00 | 0.00 | 62 | 1017.6 |
| 20260503021503 | 8 | 0 | 0.0 | 0.0 | 0.00 | 0.00 | 0.00 | 63 | 1017.6 |
| 20260503021024 | 8 | 0 | 0.0 | 0.0 | 0.00 | 0.00 | 0.00 | 62 | 1017.6 |
| 20260503020503 | 8 | 266 | 1.6 | 1.6 | 0.00 | 0.00 | 0.00 | 61 | 1017.6 |
| 20260503020003 | 8 | 0 | 0.0 | 0.0 | 0.00 | 0.00 | 0.00 | 61 | 1017.6 |
| 20260503015524 | 8 | 0 | 0.0 | 0.0 | 0.00 | 0.00 | 0.00 | 68 | 1017.6 |
| 20260503015025 | 8 | 0 | 0.0 | 0.0 | 0.00 | 0.00 | 0.00 | 68 | 1017.6 |
| 20260503014503 | 8 | 0 | 0.0 | 0.0 | 0.00 | 0.00 | 0.00 | 63 | 1017.6 |
| 20260503014003 | 8 | 0 | 0.0 | 0.0 | 0.00 | 0.00 | 0.00 | 56 | 1017.2 |
| 20260503013524 | 8 | 0 | 0.0 | 0.0 | 0.00 | 0.00 | 0.00 | 57 | 1017.6 |